Regional Weather Roundup
Issued by NWS Wakefield, VA

Home | Current Version | Previous Version | Text Only | Print | Product List | Glossary Off
Versions: 1 2 3 4 5 6 7 8 9 10 11 12 13 14 15 16 17 18 19 20 21 22 23 24 25 26 27 28 29 30 31 32 33 34 35 36 37 38 39 40 41 42 43 44 45 46 47 48 49 50

000
ASUS41 KAKQ 030515
RWRAKQ

REGIONAL WEATHER ROUNDUP
NATIONAL WEATHER SERVICE WAKEFIELD VA
100 AM EDT TUE MAY 03 2016

Note: "fair" indicates few or no clouds below 12,000 feet with no
significant weather and/or obstructions to visibility. * = Denotes
station may not report precipitation (e.g., rain,snow,etc.),
thunder or fog.

VAZ042-051-052>054-056-030600-
NORTHERN VIRGINIA

CITY           SKY/WX    TMP DP  RH WIND       PRES   REMARKS
WASH NATIONAL  NOT AVBL
DULLES         CLOUDY    63  62  97 E5        29.83F
FORT BELVOIR   FAIR      61  60  95 CALM      29.83F
QUANTICO       MOCLDY    64  63  96 S12       29.83F
FREDERICKSBRG* MOCLDY    64  64 100 S5        29.84S
STAFFORD*      FAIR      63  61  94 S5        29.88F
WARRENTON      FAIR      63  58  84 SE5       29.83F
CULPEPER*      FAIR      63  63  99 CALM      29.85S
MANASSAS*      FAIR      63  63 100 SE3       29.83F
LEESBURG*      CLOUDY    64  64 100 E3        29.84F FOG
WINCHESTER     RAIN      63  61  94 CALM      29.84F
FRONT ROYAL*   CLOUDY    61  61 100 CALM      29.84S
LURAY*         CLOUDY    61  61 100 CALM      29.85S FOG
$$

VAZ048-049-060>072-079>083-030600-
CENTRAL AND SOUTH CENTRAL VIRGINIA

CITY           SKY/WX    TMP DP  RH WIND       PRES   REMARKS
RICHMOND       LGT RAIN  64  63  96 SE8       29.86F
CHESTERFIELD*  CLOUDY    64  54  68 S6        29.89F
PETERSBURG*    RAIN      66  66 100 W3        29.90S
HANOVER        LGT RAIN  64  63  96 S9        29.87F
TAPPAHANNOCK*  HVY RAIN  67  67 100 S8        29.87F
QUINTON*       CLOUDY    65  64  99 SE6       29.88F
CHARLOTTSVILLE CLOUDY    63  61  93 S6        29.84F
GORDONSVILLE*  CLOUDY    62  62 100 S3        29.84S
ORANGE*        RAIN      63  63 100 CALM      29.86S
LOUISA*        DRIZZLE   66  64  94 CALM      29.84F
BUMPASS*       CLOUDY    63  63  99 CALM      29.85S
FARMVILLE*     LGT RAIN  64  64 100 W3        29.86S
CREWE*         CLOUDY    63  63 100 CALM      29.87F
FORT PICKETT*  NOT AVBL
CHASE CITY*    CLOUDY    64  63  95 CALM      29.88F
CLARKSVILLE*   CLOUDY    64  64 100 CALM      29.89F
SOUTH HILL*    CLOUDY    65  64  96 CALM      29.95S
LAWRENCEVILLE* CLOUDY    67  66  96 NW6       29.89S
EMPORIA*       CLOUDY    64  64 100 CALM      29.90R
$$

VAZ088>098-030600-
SOUTHEAST VIRGINIA

CITY           SKY/WX    TMP DP  RH WIND       PRES   REMARKS
NORFOLK        FAIR      69  64  84 SW13      29.86S
VIRGINIA BEACH CLOUDY    73  64  73 SW12      29.85F
NORFOLK NAVAL  CLOUDY    69  65  86 SW9       29.88R
WEST POINT*    CLOUDY    66  65  97 CALM      29.89F
SALUDA*        CLOUDY    65  65 100 SW5       29.89R
NEWPORT NEWS   MOCLDY    68  65  90 W6        29.89R
LANGLEY AFB    NOT AVBL
FORT EUSTIS    CLOUDY    68  65  89 NW8       29.87F
WILLIAMSBURG*  FAIR      66  64  94 N9        29.88F
HR EXEC AP*      N/A     68  64  88 SW6       29.89R
FRANKLIN*      FAIR      67  64  92 S3        29.88R
US460-WAKEFLD  MOCLDY    69  64  84 CALM      29.88R
$$

VAZ020-022-025-037-045-030600-
WEST CENTRAL AND SOUTHWEST VIRGINIA

CITY           SKY/WX    TMP DP  RH WIND       PRES   REMARKS
STAUNTON*      CLOUDY   N/A N/A N/A CALM      29.88S
WAYNESBORO*    CLOUDY    60  58  96 S5        29.88R
HOT SPRINGS VA CLOUDY    54  54 100 W15       29.94S
LYNCHBURG      LGT RAIN  60  60 100 SW3       29.90F
DANVILLE       LGT RAIN  62  62 100 CALM      29.89F
SOUTH BOSTON*  CLOUDY    63  62  95 CALM      29.90F
MARTINSVILLE   RAIN      58  58  99 CALM      29.93F
ROANOKE        LGT RAIN  61  60  97 W6        29.92S
BLACKSBURG     LGT RAIN  58  57  99 CALM      29.97F
DUBLIN*        MOCLDY    58  58  98 SW3       29.94F
MARION*        MOCLDY    57  56  95 CALM      29.96F
HILLSVILLE*    LGT RAIN  56  56 100 S3        29.95F
RICHLANDS*     CLOUDY    56  54  92 NW6       29.94R
WISE*          CLOUDY    55  55 100 W3        29.96S
ABINGDON*      MOCLDY    59  59  99 NE3       29.92F
$$

MDZ021>025-VAZ099-100-030600-
SOUTHERN MARYLAND AND THE DELMARVA PENINSULA

CITY           SKY/WX    TMP DP  RH WIND       PRES   REMARKS
PATUXENT RIVER CLOUDY    66  63  90 S6        29.83F
BAY BRIDGE APT NOT AVBL
LEONARDTOWN    CLOUDY    64  61  88 SW3       29.85F
DOVER          CLOUDY    59  59 100 E9        29.81F
GEORGETOWN     LGT RAIN  59  59 100 NE6       29.86F
EASTON         DRIZZLE  N/A N/A N/A CALM      29.85F
CAMBRIDGE      NOT AVBL
SALISBURY      CLOUDY    64  63  96 SW6       29.84F
OCEAN CITY     CLOUDY    64  62  93 NW7       29.85F
WALLOPS ISLAND TSTM      65  63  93 NW7       29.87R FOG
ACCOMACK*      CLOUDY    64  63  94 CALM      29.86F
$$

NCZ012>017-030>032-030600-
NORTH CENTRAL AND EASTERN NORTH CAROLINA

CITY           SKY/WX    TMP DP  RH WIND       PRES   REMARKS
ROANOKE RAPIDS FAIR      66  63  88 SW7       29.87S
RALEIGH        CLOUDY    66  64  94 SW9       29.89F
ELIZABETH CITY MOCLDY    71  66  84 S12       29.88F
AHOSKIE*       MOCLDY    66  62  87 S5        29.88F
EDENTON*       MOCLDY    70  69  97 S9        29.89F
CURRITUCK*     MOCLDY    72  67  83 SW8       29.88F
KILL DEVIL HLS MOCLDY    73  68  86 SW7       29.89F
MANTEO         NOT AVBL
CAPE HATTERAS  CLOUDY    71  69  93 SW10      29.95F
TARBORO*       FAIR      67  64  90 S5        29.89S
GOLDSBORO      NOT AVBL
WASHINGTON     CLOUDY    68  66  91 S10       29.89F
GREENVILLE     CLOUDY    68  64  88 SW10G18   29.91S
NEW BERN       CLOUDY    70  68  93 S8        29.94F
WILMINGTON     CLOUDY    73  68  84 S9        29.95F
$$

VAZ048-030600-
ELSEWHERE

CITY           SKY/WX    TMP DP  RH WIND       PRES   REMARKS
HARRISBURG PA  LGT RAIN  60  57  89 SE5       29.86F FOG
BALTIMORE      CLOUDY    62  60  93 NE9       29.83F FOG
ANNAPOLIS      CLOUDY    62  61  96 CALM      29.83F FOG
ANDREWS AFB    MOCLDY    62  61  96 CALM      29.83F
PHILADELPHIA   LGT RAIN  59  55  87 E10       29.88F FOG
HENDERSON NC   CLOUDY    66  66 100 W3        29.91S
GREENSBORO     LGT RAIN  61  60  97 CALM      29.92F FOG
ROCKY MOUNT    MOCLDY    67  64  90 S7        29.88F
$$

VAZ100-030600-
MARINE

STATION/POSITION TIME  TEMP    WIND        PRES    WAVE   SWELL
                       AIR SEA DIR/SP/G            HT/PER HT/PER
                 (UTC) (F)     (DEG/KT/KT) (MB)    (FT/S) (FT/S)
BRANDYWINE LGT   0400   58     130/ 10/ 12 1013.3R
CAPE MAY NJ      0400   58 58  100/ 12/ 15 1013.5R
LEWES DE         0400   57 57   90/  9/ 10 1013.2R
15NM E FENWICK I 0450   57 53              1011.3R   3/ 6
OCEAN-CITY-INLET 0400   65 57  300/  9/ 12 1010.9F
WACHAPREAGUE VA  0400   65 67  270/  3/  5 1010.6F
THOMAS POINT MD  0500   61 58   CALM  /  1 1011.4F
GOOSES REEF MD   0400   62 59  130/ 10/ 12 1011.8F   1
COVE POINT MD    0400   64     190/ 10/ 12 1011.6F
SOLOMONS ISLAND  0400   64 61  200/  5/  8   N/A
BISHOPS HEAD MD  0400   64 63  280/ 16/ 17 1010.7F
PINEY POINT MD   0400           90/  6/  6   N/A
POTOMAC MD       0400   63 60  290/  6/  8 1010.3F   1/ 2
CAMBRIDGE MD     0400   65 61  180/  5/  7 1010.7F
LEWISETTA VA     0400   66 62  330/  5/  6 1010.7F
RAPPAHANNOCK LGT 0400          260/  6/ 10 1011.5F
STINGRAY PT      0400   67 62  240/ 10/ 16 1011.3F   1/ 3
YORK RVR RNG VA  0400   67     190/  8/  9 1010.3F
YORKTOWN VA      0400   68 63  210/  6/  9 1010.5F
JAMESTOWN VA     0400   68 68  220/  4/  6   N/A
DOMINION TERM VA 0400   69     210/ 13/ 17 1010.6F
KIPTOPEKE VA     0400      62  140/  4/  5   N/A
CHES BAY BRIDGE  0400   70 62  180/ 17/ 21 1010.4F
CAPE HENRY VA    0400   70     190/  7/ 10   N/A
CHESAPEAKE LGHT  0400   67     190/ 12/ 13 1012.4F
WILLOUBY STN VA  0400   70     210/ 15/ 17 1011.7F
CAPE HENRY BUOY  0412      60                N/A     3/ 6
CAPE CHARLES BUO 0426      58                N/A     3/10   2/10
OFFSHORE WE BUOY 0421      56                N/A     3/10   3/10
64NM E OF VA BCH 0450   60 54  190/ 14/ 16 1011.8F   4/10   2/10
DUCK PIER NC     0400   72 67  210/ 13/ 18 1012.4F
44100 DUCK FRF   0424      61                N/A     3/11   2/11
44056 DUCK FRF   0411      58                N/A     3/11   2/11
OREGON INLET NC  0400   72 73  200/ 15/ 18 1013.5F
HATTERAS NC      0400   71 70  210/ 11/ 15 1014.4F
DIAMOND SHLS NC  0450   74 74  220/ 16/ 19 1014.2F   4/10   2/10
CAPE LOOKOUT NC  0500   71     200/ 10/ 13 1013.9F
$$



USA.gov is the U.S. government's official web portal to all federal, state and local government web resources and services.